Regional Weather Roundup
Issued by NWS Jackson, KY

Home | Current Version | Previous Version | Graphics & Text | Print | Product List | Glossary On
Versions: 1 2 3 4 5 6 7 8 9 10 11 12 13 14 15 16 17 18 19 20 21 22 23 24 25 26 27
000
ASUS43 KJKL 111110
RWRJKL

EAST KENTUCKY HOURLY WEATHER ROUNDUP
NATIONAL WEATHER SERVICE JACKSON KY
600 AM EST MON DEC 11 2017

NOTE: "FAIR" INDICATES FEW OR NO CLOUDS BELOW 12,000 FEET WITH
NO SIGNIFICANT WEATHER AND/OR OBSTRUCTIONS TO VISIBILITY.

* THESE REPORTS ARE NOT UNDER NWS QUALITY CONTROL AND MAY NOT
  REPORT WEATHER SUCH AS PRECIPITATION AND FOG.

KYZ079-080-083-085-087-088-110-112-115-119-120-111200
...EASTERN KENTUCKY...

CITY           SKY/WX    TMP DP  RH WIND       PRES   REMARKS
JACKSON        CLEAR     33  21  61 SW6       30.09S WCI  28
LONDON         CLEAR     26  20  77 CALM      30.11S
SOMERSET*      CLEAR     28  23  80 CALM      30.14R
MONTICELLO*    CLEAR     21  18  88 W10       30.15R WCI  10
WILLIAMSBURG*  SUNNY     32  23  69 CALM      30.12S
MIDDLESBORO*   CLEAR     24  22  92 CALM      30.14F
HARLAN APT*    SUNNY     27  23  86 CALM      30.11S
PIKE CO APT*     N/A     34  22  61 SW5       30.09S WCI  30
BIG SANDY APT* SUNNY     34  22  62 CALM      30.10R
MOREHEAD APT*  MOSUNNY   30  21  69 SW5       30.12R WCI  25
$$

KYZ035-036-041-042-044-050-067-078-099-111200
...CENTRAL KENTUCKY...

CITY           SKY/WX    TMP DP  RH WIND       PRES   REMARKS
MT STERLING*   CLEAR     27  21  80 W3        30.12S
FLEMING/MASON* CLEAR     27  21  79 SW5       30.12S WCI  21
DANVILLE*      CLEAR     27  21  80 SW3       30.12S
LEXINGTON      CLEAR     29  21  72 S3        30.10S
FRANKFORT      CLEAR     22  17  81 CALM      30.09S
LOUISVILLE     CLEAR     29  23  78 SE3       30.11S
LEBANON*         N/A     30  21  69 S6        30.11S WCI  24
GLASGOW*       CLEAR     24  21  89 CALM      30.13S
BOWLING GREEN  CLEAR     27  23  85 CALM      30.14S
$$

KYZ091>093-OHZ055-061-077-WVZ005-015-034-035-042-111200
...SOUTHERN OHIO/WEST VIRGINIA...

CITY           SKY/WX    TMP DP  RH WIND       PRES   REMARKS
COVINGTON      CLEAR     22  21  96 CALM      30.08F
COLUMBUS       CLOUDY    31  22  69 N6        30.07R WCI  25
DAYTON         MOCLDY    26  21  81 SW3       30.07R
WILMINGTON     CLOUDY    26  23  88 CALM      30.07S
HUNTINGTON     CLEAR     30  19  63 CALM      30.11R
CHARLESTON     CLEAR     34  20  56 SW7       30.09R WCI  28
PINEVILLE*       N/A     21  19  92 MISG      30.12S
BECKLEY        CLEAR     28  18  66 W3        30.02S
BLUEFIELD      CLEAR     28  18  66 W8G20     30.01F WCI  20
LOGAN CO APT*    N/A     34  21  60 CALM      30.07S
$$

VAZ002-007-008-TNZ017-027-036-066-071-111200
...SOUTHWEST VIRGINIA/EAST TENNESSEE...

CITY           SKY/WX    TMP DP  RH WIND       PRES   REMARKS
WISE*          CLEAR     30  23  74 W3        30.06F
JONESVILLE*      N/A     19  18  93 CALM      30.15F
ABINGDON*      CLEAR     28  20  72 W3        30.09S
BRISTOL        CLEAR     22  20  92 CALM      30.12F
MORRISTOWN*    SUNNY     32  23  69 W5        30.12F WCI  27
SEVIERVILLE*   SUNNY     27  23  86 CALM      30.15S
KNOXVILLE      CLEAR     31  26  82 CALM      30.15F
LAFOLLETTE*    SUNNY     23  21  93 CALM      30.18S
OAK RIDGE      CLEAR     28  24  85 W5        30.17S WCI  23
CROSSVILLE     CLEAR     26  21  81 CALM      30.12F
NASHVILLE      CLEAR     33  25  72 S3        30.15S
$$

...KEY TO REMARKS...
VSB - VISIBILITY IN MILES
WCI - WIND CHILL INDEX
HX  - HEAT INDEX

$$




USA.gov is the U.S. government's official web portal to all federal, state and local government web resources and services.